User: anonymous
Location: Unspecified
(0.0000°N, 0.0000°E)
Time: 11:37:56
(UTC+00:00)
Language:

PW SAT - Orbit

View from above orbital plane
View from above orbital plane
View from above satellite
View from above satellite

Ground track
Ground track

The orbit data is extracted from the following two-line orbital elements,

1 38083U 12006G   14244.78504335  .00146095  90082-5  93797-3 0  5624
2 38083 069.4411 122.4524 0235360 229.2296 128.8252 15.46855901135719
Epoch (UTC): 01 September 2014 18:50:27
Eccentricity: 0.0235360
inclination: 69.4411°
perigee height: 266 km
apogee height: 586 km
right ascension of ascending node: 122.4524°
argument of perigee: 229.2296°
revolutions per day: 15.46855901
mean anomaly at epoch: 128.8252°
orbit number at epoch: 13571

The dashed part of the orbit path shows where the satellite is in the earth's shadow,  

DLR